Wetbulb
48.23 49.66 50.65 52.19 52.23 52.29 51.44 51.38 50.11 48.01 45.80 43.10 40.96 40.16 38.94 38.55 37.88 38.22 38.25 37.91 37.50 37.02 36.57 35.93 35.20 35.17 34.69 33.77 33.79 33.64 32.91 33.20 32.61 33.60 35.25 35.25 34.63 34.71 35.58 35.68 34.94 34.86 35.18
45.20 47.35 48.28 49.82 50.21 50.54 50.19 50.17 49.73 47.20 46.20 44.71 43.95 43.34 41.15 39.35 39.00 38.28 37.77 37.79 37.20 36.79 36.10 35.45 34.72 34.46 33.36 32.84 32.78 32.77 32.63 32.38 31.66 31.94 31.82 31.71 34.25 35.35 34.76 34.31 34.39 34.27 34.55
42.95 46.13 46.59 47.40 48.19 49.18 49.29 49.44 49.35 46.80 47.04 45.54 44.37 41.39 38.52 37.56 36.49 36.55 36.77 36.75 36.89 36.49 36.13 35.24 34.55 33.86 33.78 32.55 32.33 31.82 31.42 31.41 31.00 30.85 31.90 31.07 30.04 28.70 33.25 32.89 33.03 33.12 33.26
42.91 46.03 46.59 46.41 46.83 48.01 49.14 49.33 48.93 46.90 46.80 45.19 42.70 39.55 39.72 37.05 38.97 37.39 37.41 36.45 36.56 36.13 35.59 34.89 34.21 33.81 33.27 32.16 32.05 31.71 31.50 31.39 30.39 30.89 31.26 30.52 29.77 27.84 27.53 32.03 32.06 31.92 31.74
42.61 44.01 46.62 47.00 47.36 47.99 47.61 48.39 48.45 46.84 46.58 44.55 43.55 41.22 41.63 40.95 39.46 37.16 35.55 35.56 35.52 35.84 34.92 34.43 33.68 33.12 32.69 32.09 32.44 30.69 30.37 30.96 30.58 30.37 29.67 28.98 29.26 28.49 26.10 24.54 27.91 30.25 31.95
43.03 43.43 46.81 48.06 47.58 48.08 47.25 47.46 47.19 46.12 46.51 44.63 43.79 42.45 42.36 39.15 36.42 35.85 35.16 34.74 34.87 34.24 34.06 33.35 32.96 32.91 32.02 31.33 31.10 30.74 30.09 30.02 29.94 30.18 29.30 28.82 28.15 27.25 26.24 24.61 26.05 25.85 28.89
42.75 42.73 43.53 46.01 46.66 46.58 46.47 46.56 46.18 44.83 45.71 44.05 43.50 42.64 42.60 38.79 37.42 36.21 35.73 34.04 33.36 32.62 32.17 32.25 31.64 31.31 31.18 31.01 30.87 30.28 29.88 29.44 29.20 28.76 28.92 28.97 28.26 28.52 27.41 25.88 24.96 24.46 27.58
41.00 41.91 42.82 45.82 46.29 46.30 45.95 46.09 45.64 44.53 44.71 43.42 43.28 42.68 42.06 39.56 39.12 37.67 36.57 35.29 34.33 33.15 32.41 31.69 31.26 30.57 30.35 30.49 30.21 29.91 29.77 29.28 29.37 28.24 27.89 28.34 28.30 28.40 27.95 26.57 24.93 22.51 25.14
38.45 40.36 42.29 45.28 46.20 46.17 45.64 45.83 45.62 44.96 44.23 43.31 43.16 42.26 40.18 39.80 38.65 38.09 36.87 35.82 34.37 32.50 31.29 30.92 30.14 29.70 29.70 29.65 29.27 29.15 28.58 28.64 28.70 28.61 28.18 27.40 28.14 28.30 28.19 27.95 27.30 24.47 20.09
38.30 38.75 40.71 44.30 45.97 46.10 45.90 46.10 45.96 44.78 43.82 43.31 42.77 41.95 39.20 39.52 38.19 36.76 35.68 33.85 32.83 32.03 30.20 29.43 29.24 28.84 28.80 28.75 28.39 28.23 28.08 27.55 28.13 28.19 27.37 27.21 27.81 27.88 28.39 28.28 28.08 27.08 24.24
38.43 38.54 39.13 43.90 45.34 45.52 45.03 45.03 44.82 44.32 42.62 42.81 41.98 40.74 39.80 37.99 36.32 35.83 34.14 33.10 31.46 30.39 29.61 28.84 28.28 28.02 27.69 27.78 27.50 27.40 27.40 26.71 26.95 27.32 26.83 26.91 27.88 27.89 28.51 28.73 28.36 27.18 27.23
39.13 38.86 40.31 42.46 43.08 43.40 43.71 43.91 43.95 43.07 41.98 42.56 40.84 38.56 36.85 35.53 35.23 33.88 32.96 31.26 30.26 30.00 29.03 28.24 27.79 27.46 27.32 27.12 26.61 26.17 27.44 26.35 26.01 26.49 26.78 27.22 28.07 28.33 28.86 28.77 27.96 28.02 29.05
39.21 38.83 39.40 40.28 41.30 42.02 42.53 42.70 42.77 41.18 41.51 40.48 37.67 35.24 34.49 34.72 32.86 31.35 30.46 30.14 28.97 28.48 28.18 27.69 26.97 26.61 26.74 26.36 26.40 26.24 26.12 26.07 26.13 26.68 26.79 27.44 27.83 27.86 28.93 28.82 28.26 28.93 29.49
38.30 38.09 38.49 38.90 39.74 40.48 40.84 40.73 40.00 40.26 38.68 36.33 34.75 33.59 33.57 32.72 31.29 30.25 29.65 29.10 29.06 27.68 27.00 26.68 26.66 26.69 26.61 26.62 26.52 26.48 26.09 26.28 27.11 27.72 28.37 28.61 28.71 28.62 28.82 29.25 29.72 30.31 30.51
37.99 37.73 38.20 38.92 38.76 37.87 37.71 37.81 36.90 36.02 36.04 34.19 33.38 32.34 31.74 30.98 29.90 29.35 28.97 28.04 27.39 26.90 26.40 25.60 25.61 25.98 26.23 26.57 26.60 27.02 27.62 28.15 28.69 29.39 29.65 30.33 30.64 32.11 32.79 31.92 31.48 31.38 30.19
38.58 39.02 38.97 38.68 37.24 35.67 35.23 34.71 34.05 34.02 34.43 33.08 31.55 30.20 29.61 29.23 28.99 28.45 27.31 26.71 25.96 25.72 25.40 24.91 24.74 24.72 26.46 29.13 30.80 31.23 30.20 30.37 30.22 29.08 29.76 30.00 30.78 30.87 32.70 33.29 33.36 33.06 30.39
29.67 38.84 38.98 37.79 36.27 34.56 33.95 32.97 33.10 33.21 32.69 31.05 29.62 29.32 29.19 28.59 27.86 27.32 26.50 25.47 24.78 24.90 24.34 23.93 24.74 24.71 25.52 29.24 30.92 32.61 31.69 30.80 29.52 29.38 29.23 29.30 30.03 31.30 30.21 31.49 32.96 33.57 34.65
26.26 29.96 39.50 37.74 35.50 33.18 32.54 32.14 31.83 31.95 30.40 29.07 28.91 28.98 28.49 27.32 26.82 26.45 25.49 24.73 24.59 24.10 23.75 23.67 24.71 24.88 25.43 29.68 30.88 31.64 31.04 29.88 29.49 29.58 29.55 29.28 29.42 30.32 30.87 31.43 32.11 31.38 30.89
27.15 30.95 37.01 37.43 33.57 32.32 31.44 30.91 30.39 29.43 28.84 28.15 27.83 27.95 27.63 26.44 26.02 24.88 24.24 24.17 24.11 23.70 23.80 24.55 24.50 24.65 24.94 28.74 29.99 30.95 30.31 29.50 29.44 29.69 30.20 30.10 30.15 31.35 33.43 30.99 29.03 28.59 28.82
27.44 29.58 35.03 33.64 32.45 30.90 31.18 29.73 28.33 28.29 27.74 27.61 27.60 27.81 27.50 26.30 25.14 24.49 23.86 24.46 24.60 24.41 25.49 24.61 24.84 26.02 25.10 27.89 29.89 31.38 30.22 29.29 29.27 30.22 30.13 30.74 30.50 32.51 32.89 29.94 28.42 25.93 26.45
25.47 28.48 29.44 30.57 30.11 30.73 30.48 28.48 28.23 27.66 27.79 27.70 27.21 26.85 26.66 25.56 24.91 24.43 24.56 24.79 24.87 24.78 24.04 24.28 24.35 24.84 25.52 26.37 30.32 31.23 30.82 29.70 29.39 28.21 27.70 28.53 30.85 31.28 31.36 31.14 27.69 27.08 29.42
23.70 25.53 25.98 26.35 28.07 29.62 29.22 27.77 27.29 27.26 27.09 26.83 25.89 25.18 25.04 25.06 24.91 24.42 24.88 24.76 23.63 23.07 23.32 23.59 24.06 25.13 25.78 28.42 29.56 31.06 31.37 31.59 29.21 27.28 27.73 28.51 29.81 29.95 29.82 28.78 29.54 29.66 28.78
22.55 24.26 24.75 25.28 27.11 28.77 29.59 24.95 24.98 26.27 25.77 25.10 24.23 24.28 24.80 25.02 25.35 24.45 23.62 23.10 23.49 23.59 23.12 23.96 23.45 23.89 25.99 26.72 29.42 30.31 30.56 30.17 28.76 28.23 29.29 28.52 28.52 28.06 26.97 27.57 28.00 27.65 24.56
21.57 23.30 23.98 22.83 22.64 24.53 25.03 24.86 25.43 25.81 25.01 23.84 23.72 24.33 24.12 24.46 24.84 25.01 24.65 24.02 23.92 23.98 23.98 23.49 23.02 23.70 25.08 26.53 28.34 28.86 28.35 28.87 28.28 28.27 25.31 26.13 26.05 25.99 25.85 25.04 25.15 24.94 24.82
21.50 22.77 21.70 21.39 21.59 23.25 23.51 24.42 24.90 25.33 23.97 23.82 23.95 25.00 25.35 24.03 24.01 24.89 24.73 24.65 24.82 25.77 24.41 24.27 24.51 23.92 24.78 27.53 29.56 29.22 27.84 27.90 28.23 25.97 22.71 21.90 21.72 21.48 22.29 23.12 23.78 24.45 24.42
21.07 21.89 22.26 22.24 22.63 23.11 23.34 24.16 25.25 25.25 24.60 24.13 24.00 23.71 23.49 23.93 23.94 24.23 24.95 28.52 28.80 29.16 28.87 28.36 26.30 27.05 29.16 29.23 29.19 28.50 27.53 28.14 26.79 20.93 20.03 20.37 20.68 20.21 20.54 21.04 21.80 23.20 23.57
MSLP
1004.09 1005.41 1006.29 1007.20 1008.29 1009.47 1010.51 1011.35 1012.35 1013.53 1014.34 1015.75 1016.91 1018.09 1018.78 1019.82 1020.77 1021.06 1021.31 1022.19 1022.72 1022.95 1023.16 1023.72 1024.47 1024.88 1024.87 1025.13 1025.46 1025.79 1026.18 1026.31 1026.23 1025.70 1025.07 1024.83 1024.83 1024.69 1024.76 1024.98 1024.96 1025.01 1025.11
1004.22 1004.84 1005.61 1006.49 1007.38 1008.15 1009.17 1010.46 1011.23 1012.32 1013.20 1014.65 1015.76 1016.73 1017.93 1019.31 1020.00 1020.62 1021.31 1021.89 1022.49 1022.75 1022.95 1023.52 1024.26 1024.57 1024.79 1025.16 1025.54 1025.91 1026.21 1026.51 1026.75 1026.31 1026.00 1025.15 1024.77 1024.57 1024.60 1024.77 1024.85 1024.82 1024.96
1002.92 1003.95 1004.82 1005.36 1006.28 1007.38 1008.10 1009.07 1010.02 1011.27 1012.15 1013.93 1015.28 1016.52 1018.11 1019.37 1020.18 1020.53 1021.05 1021.62 1022.15 1022.44 1022.67 1023.40 1023.99 1024.33 1024.56 1025.05 1025.55 1025.96 1026.27 1026.59 1027.13 1027.03 1026.47 1026.01 1025.68 1025.42 1024.68 1024.57 1024.77 1024.77 1024.64
1001.61 1002.67 1003.58 1004.58 1005.13 1005.69 1006.89 1007.95 1009.21 1009.99 1011.55 1012.62 1013.71 1014.49 1015.22 1016.85 1017.82 1019.05 1020.24 1021.29 1021.86 1022.23 1022.63 1023.26 1023.74 1024.05 1024.45 1025.01 1025.55 1026.01 1026.44 1026.89 1027.04 1027.26 1027.07 1026.98 1026.98 1026.64 1025.29 1024.46 1024.32 1024.54 1024.30
1000.08 1000.99 1001.88 1002.51 1003.36 1004.77 1005.81 1006.98 1008.18 1009.24 1010.34 1011.27 1012.28 1013.45 1014.56 1016.01 1017.18 1018.64 1019.93 1020.86 1021.57 1021.93 1022.42 1023.12 1023.56 1023.90 1024.31 1024.98 1025.34 1025.91 1026.57 1027.06 1027.11 1026.95 1027.10 1027.21 1027.28 1027.45 1027.42 1025.72 1024.41 1024.31 1024.16
998.90 999.23 1000.10 1001.46 1002.71 1003.93 1004.94 1006.07 1007.07 1008.10 1009.36 1010.61 1011.67 1012.54 1013.54 1014.93 1016.35 1017.91 1019.16 1020.28 1021.15 1021.82 1022.30 1022.92 1023.34 1023.61 1024.17 1024.85 1025.28 1025.79 1026.43 1026.88 1027.03 1027.09 1027.13 1026.97 1027.11 1027.24 1027.30 1026.74 1025.63 1025.05 1023.66
997.16 997.95 999.15 1000.21 1001.52 1002.75 1003.87 1004.71 1005.74 1006.94 1008.12 1009.49 1010.64 1011.70 1012.60 1013.80 1014.92 1016.45 1017.82 1019.29 1020.48 1021.24 1021.84 1022.49 1023.04 1023.44 1024.01 1024.69 1025.11 1025.63 1026.20 1026.65 1026.86 1026.99 1026.97 1027.10 1027.10 1027.24 1027.19 1026.92 1026.12 1025.21 1024.23
996.74 997.44 998.14 998.99 1000.05 1001.20 1002.23 1003.28 1004.45 1005.81 1007.03 1008.34 1009.46 1010.85 1011.91 1013.14 1014.38 1015.56 1016.92 1018.38 1019.44 1020.38 1021.30 1022.14 1022.72 1023.19 1023.83 1024.49 1024.95 1025.54 1026.08 1026.50 1026.63 1026.76 1026.89 1026.90 1026.85 1026.92 1026.85 1026.65 1026.39 1025.15 1024.15
996.22 996.92 997.43 998.04 999.07 1000.22 1001.22 1002.25 1003.49 1004.80 1005.95 1007.13 1008.53 1009.79 1011.07 1012.26 1013.43 1014.89 1016.45 1017.80 1019.04 1020.06 1021.12 1021.84 1022.48 1023.06 1023.65 1024.18 1024.81 1025.35 1025.89 1026.17 1026.29 1026.46 1026.52 1026.56 1026.50 1026.54 1026.49 1026.42 1026.29 1026.01 1024.10
996.08 996.64 997.08 997.58 998.30 999.28 1000.42 1001.79 1002.82 1003.67 1005.07 1006.55 1007.71 1008.92 1010.39 1011.65 1012.97 1014.31 1015.70 1017.15 1018.47 1019.67 1020.85 1021.65 1022.31 1023.02 1023.58 1024.12 1024.74 1025.15 1025.65 1025.88 1026.04 1026.08 1026.09 1026.04 1025.99 1025.99 1025.93 1025.84 1025.65 1025.40 1024.70
996.16 996.47 997.00 997.61 998.20 999.03 1000.00 1001.13 1002.34 1003.59 1005.00 1006.13 1007.41 1008.77 1010.01 1011.24 1012.41 1013.65 1015.19 1016.61 1017.91 1019.22 1020.38 1021.18 1021.96 1022.68 1023.45 1024.07 1024.53 1024.92 1025.36 1025.62 1025.67 1025.65 1025.66 1025.55 1025.47 1025.39 1025.34 1025.11 1024.82 1024.49 1023.95
996.79 997.09 997.43 997.99 998.73 999.28 999.93 1000.72 1002.08 1003.48 1004.78 1005.89 1007.15 1008.55 1009.92 1011.07 1012.28 1013.73 1015.04 1016.28 1017.61 1018.95 1019.94 1020.95 1021.73 1022.53 1023.25 1023.89 1024.29 1024.71 1024.92 1025.13 1025.20 1025.21 1025.22 1024.99 1024.92 1024.73 1024.53 1024.29 1023.95 1023.50 1022.85
997.69 997.84 998.08 998.61 999.21 999.90 1000.37 1001.03 1001.83 1003.20 1004.60 1005.89 1007.12 1008.47 1009.74 1010.81 1012.01 1013.44 1014.81 1016.05 1017.37 1018.65 1019.78 1020.48 1021.28 1022.28 1023.01 1023.65 1024.09 1024.36 1024.54 1024.71 1024.80 1024.74 1024.70 1024.45 1024.27 1023.97 1023.62 1023.40 1022.97 1022.35 1021.58
998.88 999.04 998.95 999.24 999.87 1000.45 1001.06 1001.54 1002.28 1003.16 1004.37 1005.82 1007.10 1008.32 1009.46 1010.52 1011.83 1013.27 1014.61 1015.87 1017.16 1018.33 1019.51 1020.34 1021.11 1021.84 1022.74 1023.34 1023.68 1023.88 1024.09 1024.33 1024.25 1024.18 1024.00 1023.74 1023.49 1023.19 1022.84 1022.53 1021.94 1021.27 1020.43
1000.02 999.97 1000.27 1000.31 1000.54 1001.01 1001.68 1002.29 1002.92 1003.69 1004.53 1005.69 1006.91 1008.21 1009.43 1010.66 1011.92 1013.19 1014.50 1015.94 1017.25 1018.45 1019.34 1020.32 1021.05 1021.65 1022.50 1022.89 1023.09 1023.26 1023.48 1023.64 1023.61 1023.47 1023.29 1022.94 1022.65 1022.33 1021.82 1021.35 1020.85 1020.31 1019.49
1001.22 1000.61 1000.66 1000.92 1001.28 1001.68 1002.30 1002.96 1003.58 1004.12 1004.80 1005.79 1006.91 1008.13 1009.40 1010.67 1011.84 1013.12 1014.55 1015.93 1017.25 1018.28 1019.33 1020.23 1020.80 1021.59 1022.02 1022.16 1022.21 1022.53 1022.85 1022.93 1022.95 1022.83 1022.62 1022.19 1021.93 1021.51 1021.17 1020.76 1020.25 1019.64 1018.68
1003.00 1001.37 1000.64 1001.07 1001.41 1001.93 1002.70 1003.59 1004.22 1004.86 1005.42 1006.13 1007.14 1008.19 1009.37 1010.63 1011.95 1013.22 1014.59 1015.93 1017.07 1018.15 1019.20 1020.03 1020.74 1021.28 1021.60 1021.71 1021.88 1021.90 1022.20 1022.47 1022.44 1022.43 1022.13 1021.84 1021.29 1020.89 1020.57 1019.96 1019.33 1018.59 1018.07
1003.55 1002.40 1000.95 1001.06 1001.59 1002.47 1003.09 1003.65 1004.67 1005.35 1005.98 1006.71 1007.44 1008.44 1009.56 1010.87 1012.22 1013.45 1014.75 1016.04 1017.07 1018.13 1019.02 1019.92 1020.52 1020.99 1021.31 1021.49 1021.65 1021.77 1021.99 1022.16 1022.07 1021.88 1021.69 1021.40 1020.77 1020.38 1019.84 1018.95 1018.44 1017.85 1017.29
1004.25 1002.65 1001.27 1001.03 1001.66 1002.51 1003.33 1003.82 1004.80 1005.87 1006.70 1007.27 1007.87 1008.75 1009.75 1010.99 1012.39 1013.78 1015.04 1016.27 1017.32 1018.38 1019.16 1019.81 1020.32 1020.78 1021.16 1021.32 1021.38 1021.60 1021.72 1021.67 1021.52 1021.38 1021.06 1020.79 1020.29 1019.80 1018.96 1018.30 1017.74 1017.11 1016.48
1004.57 1003.10 1001.50 1001.60 1001.91 1002.60 1003.27 1004.03 1004.92 1006.00 1007.00 1007.73 1008.36 1009.15 1010.05 1011.03 1012.41 1013.71 1015.12 1016.46 1017.53 1018.38 1019.13 1019.82 1020.36 1020.76 1021.06 1021.19 1021.27 1021.28 1021.25 1021.20 1020.91 1020.88 1020.46 1020.14 1019.81 1019.12 1018.51 1018.13 1017.46 1016.73 1015.81
1005.17 1004.07 1002.90 1002.57 1002.71 1003.00 1003.47 1004.29 1005.20 1006.20 1007.22 1008.17 1008.99 1009.88 1010.72 1011.68 1012.87 1014.11 1015.39 1016.59 1017.55 1018.37 1019.19 1019.78 1020.41 1020.82 1021.05 1021.22 1021.15 1021.01 1020.87 1020.70 1020.63 1020.28 1019.83 1019.56 1019.35 1018.80 1018.28 1017.96 1017.41 1016.58 1015.03
1005.81 1004.78 1003.85 1003.45 1003.50 1003.48 1004.03 1004.65 1005.55 1006.48 1007.53 1008.48 1009.48 1010.43 1011.41 1012.40 1013.57 1014.57 1015.88 1016.73 1017.64 1018.49 1019.32 1019.96 1020.52 1020.83 1021.01 1021.05 1021.01 1020.77 1020.58 1020.34 1020.22 1019.97 1019.82 1019.54 1019.28 1018.75 1018.26 1017.88 1016.99 1015.97 1014.89
1006.91 1005.59 1004.72 1004.28 1004.27 1004.17 1004.49 1005.14 1006.24 1006.91 1007.74 1008.77 1009.91 1010.86 1012.00 1013.23 1014.13 1015.13 1016.12 1017.12 1018.01 1018.81 1019.54 1020.02 1020.53 1020.88 1020.99 1021.00 1020.84 1020.66 1020.39 1020.13 1019.91 1019.88 1019.77 1019.53 1019.26 1018.79 1018.39 1017.60 1016.54 1015.73 1014.97
1007.48 1006.34 1005.69 1005.29 1005.01 1005.02 1005.42 1006.00 1006.72 1007.51 1008.29 1009.18 1010.35 1011.45 1012.61 1013.58 1014.90 1015.74 1016.55 1017.30 1018.14 1018.87 1019.41 1020.01 1020.55 1020.94 1020.97 1020.93 1020.63 1020.29 1020.08 1019.90 1019.85 1019.90 1019.94 1019.55 1019.20 1018.81 1018.15 1017.06 1016.34 1015.67 1014.81
1008.16 1007.50 1007.02 1006.45 1006.17 1005.91 1006.32 1007.00 1007.62 1008.28 1009.10 1010.06 1011.07 1012.23 1013.34 1014.49 1015.43 1016.18 1016.93 1017.59 1018.37 1018.79 1019.46 1020.06 1020.41 1020.69 1020.68 1020.35 1020.30 1019.99 1019.87 1019.84 1020.12 1020.12 1020.11 1019.69 1019.18 1018.39 1017.36 1016.43 1015.98 1015.28 1014.48
1008.60 1008.14 1007.73 1007.38 1007.40 1007.35 1007.71 1008.15 1008.57 1009.04 1009.71 1010.50 1011.59 1012.77 1013.84 1014.89 1015.85 1016.54 1017.30 1018.00 1018.49 1019.06 1019.62 1020.06 1020.33 1020.38 1020.23 1020.27 1020.03 1020.09 1020.27 1020.29 1020.61 1020.65 1020.27 1019.83 1019.22 1018.30 1017.16 1016.58 1015.87 1015.03 1014.29
Wind_Speed
12 12 15 17 18 18 20 22 21 20 16 13 13 11 11 9 9 9 12 12 10 11 10 7 8 6 5 5 4 3 4 3 6 4 2 2 3 3 3 2 5 5 5
10 13 17 19 21 22 22 22 23 22 18 14 13 9 11 8 9 8 11 11 12 11 10 10 8 7 6 6 5 3 2 2 5 3 1 3 0 2 3 3 2 6 6
15 15 19 23 21 22 24 24 23 23 21 18 12 8 8 6 7 9 9 10 12 11 11 10 8 8 6 5 5 4 3 2 2 4 3 1 3 6 1 2 3 6 6
14 17 20 21 23 23 22 23 24 24 22 23 18 22 18 13 9 11 9 9 11 11 10 10 9 8 6 6 5 4 3 2 1 1 2 3 2 3 7 2 5 6 12
20 20 23 24 25 23 22 23 23 23 22 23 21 17 17 12 9 10 14 12 10 11 11 10 10 9 6 6 6 6 5 2 2 2 2 1 1 4 5 8 8 10 7
18 19 20 19 18 19 20 21 24 23 22 22 22 23 22 17 14 14 12 10 8 8 10 10 9 8 8 7 6 6 5 4 3 3 3 3 2 2 4 6 9 12 11
14 15 17 18 19 22 23 21 24 24 24 24 23 23 21 20 20 19 14 15 10 8 10 11 10 8 8 7 7 6 5 5 4 5 3 3 4 4 5 7 9 8 10
11 16 19 19 21 23 24 24 26 25 25 24 24 21 20 13 13 17 14 12 11 10 12 10 9 10 9 8 7 5 4 5 4 5 4 4 4 4 5 6 8 11 9
8 12 14 18 19 21 24 25 25 23 24 24 21 21 18 19 16 17 15 11 11 9 12 11 10 9 9 8 7 5 5 5 4 5 5 4 4 5 5 7 7 8 9
7 8 11 16 17 20 20 21 22 23 23 22 20 18 18 17 16 16 17 15 12 13 12 11 11 10 8 8 7 5 5 5 4 4 5 5 5 6 6 7 7 8 10
7 7 6 8 12 14 17 18 19 21 20 20 19 18 17 17 17 16 15 15 14 14 13 12 11 10 9 8 7 5 5 5 4 5 5 7 7 6 6 7 8 9 10
2 2 5 8 10 13 15 18 18 18 19 18 18 18 16 17 16 15 15 15 15 13 13 12 10 9 8 8 7 6 5 5 5 5 6 7 5 8 8 7 11 10 12
4 5 7 8 10 11 14 16 17 18 17 17 17 16 17 17 16 16 16 16 15 13 12 12 11 10 8 7 6 6 5 5 5 6 7 8 7 9 8 9 10 11 10
2 3 6 7 8 9 11 13 15 17 17 17 17 17 17 17 16 16 16 16 14 14 11 9 10 9 7 7 6 6 5 5 6 7 8 8 9 10 10 10 13 12 11
1 3 4 7 8 9 10 11 13 15 17 17 17 16 15 16 17 17 16 15 13 11 11 10 9 8 7 5 6 6 6 6 6 7 7 8 10 15 14 9 11 12 12
5 4 6 8 9 10 10 11 13 14 16 16 16 16 17 17 17 17 16 15 13 12 11 9 9 8 5 9 8 7 6 6 6 5 7 8 12 12 15 19 22 19 15
14 7 8 8 8 8 10 10 11 12 13 15 16 17 18 18 17 17 16 15 13 12 10 9 9 8 6 7 6 6 3 3 4 6 7 9 7 12 11 17 22 21 23
17 15 5 8 9 7 9 11 11 12 13 15 16 16 17 17 16 16 15 13 12 11 10 9 9 7 5 7 5 5 2 3 5 7 8 9 11 11 14 14 13 13 15
16 15 11 9 10 11 11 13 12 12 12 14 15 16 16 17 16 15 14 12 11 10 8 8 8 7 5 5 4 5 3 4 6 6 7 8 11 16 21 15 15 15 14
15 12 4 8 10 11 12 13 13 13 13 13 14 15 16 17 16 15 14 10 10 10 8 8 6 7 4 4 5 5 2 5 4 6 7 11 13 20 23 15 14 14 15
15 9 5 5 8 11 12 13 13 12 12 13 14 14 14 15 15 15 13 12 10 9 8 8 6 5 4 3 4 5 2 4 4 5 7 7 18 22 21 22 12 15 20
13 9 4 5 5 9 11 13 13 13 14 15 15 15 15 12 12 15 12 11 10 9 8 8 5 3 3 2 2 3 4 5 4 6 6 8 19 19 20 16 21 24 21
11 6 2 6 6 8 10 14 13 15 16 17 16 15 15 13 13 13 12 9 8 7 7 6 5 3 2 0 2 3 6 6 5 4 8 15 16 17 14 18 21 20 10
9 7 4 7 9 10 11 13 13 15 16 17 16 15 14 14 11 9 8 8 7 6 6 6 5 3 1 1 2 1 2 7 7 5 6 9 12 13 13 12 12 10 10
7 5 5 7 8 11 12 12 13 15 16 15 15 14 12 11 10 8 7 7 6 6 6 5 5 4 2 1 4 6 4 4 6 7 5 6 7 8 8 9 10 10 10
5 4 4 7 7 10 11 12 13 15 16 15 12 10 10 9 9 9 9 15 14 15 13 11 6 1 5 6 8 9 8 9 12 3 5 7 7 9 9 10 11 10 14
Wind_Direction
213 196 185 180 174 176 178 180 173 173 162 165 165 165 173 168 170 173 160 162 159 156 144 134 138 146 130 113 102 90 53 43 358 313 316 346 345 328 251 272 314 321 314
200 184 183 180 182 181 180 179 182 174 175 173 176 175 166 178 171 165 164 164 164 161 149 145 150 148 131 120 103 97 105 59 13 20 314 351 294 356 304 300 305 317 320
204 192 187 189 184 185 184 185 182 178 176 176 164 133 126 131 160 175 169 170 169 164 150 152 154 148 136 133 129 114 108 89 49 19 3 334 332 321 282 305 309 319 316
202 196 190 191 190 193 187 183 183 179 181 175 172 172 176 172 187 175 165 167 169 162 155 157 157 150 139 138 138 134 113 140 157 152 62 52 23 345 316 291 323 334 320
203 195 194 192 194 187 185 187 184 180 182 181 181 176 177 182 157 156 159 165 168 166 160 162 158 151 142 141 144 139 155 182 187 174 161 143 194 231 248 292 314 316 312
208 200 197 191 190 188 182 182 183 183 182 182 184 184 179 165 155 161 165 166 166 163 166 163 162 152 144 151 154 153 169 181 185 186 187 193 226 208 243 269 294 301 312
208 196 187 184 184 187 185 182 182 184 183 183 184 185 180 171 167 165 168 163 167 172 173 167 164 155 150 155 153 160 176 188 204 203 207 220 236 250 264 276 287 282 304
194 189 193 189 188 186 184 183 185 183 182 182 184 183 176 173 170 170 166 170 172 169 163 164 159 151 154 158 156 166 184 196 210 209 216 241 244 245 254 263 290 300 286
197 199 188 188 186 186 186 187 185 183 183 183 178 180 171 170 169 166 162 163 158 156 159 159 157 156 157 160 162 176 190 200 210 226 232 242 254 249 254 261 267 278 301
224 211 191 187 186 184 182 184 183 182 179 179 177 178 173 166 158 153 160 161 153 150 154 155 157 158 160 160 170 178 187 205 219 237 242 249 257 262 261 265 265 259 267
229 225 203 193 180 171 172 176 176 175 175 176 172 170 169 161 154 155 154 155 145 150 156 157 158 160 163 170 176 183 192 216 237 244 256 261 265 271 270 269 269 268 269
358 188 160 148 161 165 166 169 169 170 172 170 165 163 154 151 149 149 149 147 146 149 152 154 155 158 165 172 178 189 195 216 239 257 260 271 278 276 277 275 274 273 272
53 102 110 137 151 160 163 165 165 162 163 159 153 150 152 152 147 144 144 144 143 146 151 155 155 161 166 172 185 196 206 225 241 254 264 272 275 281 282 281 278 274 273
80 63 112 127 138 149 158 156 153 154 150 149 149 151 154 149 146 143 143 142 147 147 148 147 152 154 162 176 185 195 211 232 246 255 260 266 270 276 284 278 277 277 278
109 109 141 141 134 134 140 142 142 146 149 148 149 151 144 141 139 139 139 138 140 140 137 140 144 144 164 181 192 200 217 241 258 260 261 269 276 278 288 294 291 290 290
297 165 166 155 152 149 147 144 147 149 150 149 145 141 140 141 143 140 139 136 134 134 135 140 144 155 175 190 197 210 224 239 247 272 284 285 285 287 292 300 298 294 299
329 246 173 172 160 153 148 150 148 145 147 143 144 145 145 144 144 139 137 137 136 136 139 141 152 163 174 189 203 227 209 244 266 285 295 299 296 303 299 292 291 289 291
323 309 221 169 149 137 139 134 142 148 146 146 147 147 144 139 136 134 133 132 135 140 140 148 155 154 170 182 202 237 230 262 279 284 288 292 303 302 301 299 299 301 298
310 295 254 162 143 145 143 137 137 138 143 148 145 143 140 135 134 131 130 129 130 133 136 147 146 149 157 184 206 234 249 268 279 292 291 298 305 308 314 317 313 305 301
323 327 76 132 142 145 145 139 140 143 149 149 143 138 138 135 132 129 129 129 129 130 135 132 134 155 157 194 215 246 224 270 301 299 303 314 323 317 325 320 316 310 304
322 327 32 119 142 144 143 140 141 144 138 133 129 127 126 123 124 122 125 128 128 125 124 126 131 144 169 197 224 259 234 287 295 326 332 330 324 326 327 323 323 303 321
325 329 61 89 122 137 138 137 134 130 128 126 122 119 119 121 123 122 124 120 122 120 125 129 136 152 165 198 250 312 316 331 336 339 331 322 323 326 324 324 315 324 326
322 325 81 99 105 127 142 123 128 130 127 124 122 119 117 120 120 122 120 117 116 124 137 143 139 135 130 221 313 325 342 352 357 331 323 325 323 324 314 314 331 329 319
333 344 53 92 90 93 101 115 127 128 125 121 119 119 119 116 116 116 116 123 130 136 137 134 132 127 125 303 294 274 346 6 351 341 325 324 322 312 312 324 326 322 321
339 1 48 79 90 103 108 117 122 124 118 116 117 118 112 115 115 108 121 121 122 131 131 132 132 127 90 29 37 34 28 6 351 347 337 331 327 324 327 335 330 326 320
342 3 68 87 86 98 106 114 118 119 122 117 112 116 118 118 119 123 122 123 131 131 135 136 140 203 103 70 48 36 30 15 12 358 334 332 326 328 334 329 323 322 321